Four Corners Regional Airport
KFMN : now visible

Airfield :











YOU CAN JOIN US ON...

 
LOGIN :

Register | Disclaimer

   EN    FR    IT 

 









Legend :    VFR   Marginal VFR   IFR   Intensive IFR   Very Intensive IFR
Visi :
Ceiling :
>= 8 km
>= 3000ft
5 to 8 km
1000 to 3000 ft
1500m to 5 km
500 to 1000 ft
800 to 1500m
200 to 500 ft
< 800m
< 200 ft
Symbols :   Thunderstorms  Fog  Heavy snow  Heavy precipitations  Wind > 20 kt






- Airport Elevation : 5506 ft


KFMN - Four Corners Regional

CURRENT METAR :
  • 220253Z 02003KT 10SM CLR 12/M14 A2997 RMK AO2 SLP130 T01171144 53008

EXPIRED METARs :
  • 220153Z 34003KT 10SM CLR 14/M14 A2996 RMK AO2 SLP128 T01441139
  • 220053Z 00000KT 10SM CLR 22/M12 A2994 RMK AO2 SLP108 T02221122

TAF KFMN
Valid from the 22 at 00:00 until the 23 at 00:00 UTC


212348Z 2200/2224 30007KT P6SM FEW250
FM220100 VRB04KT P6SM SCT250
FM220700 08007KT P6SM SCT250
FM221800 26012G20KT P6SM SKC
KZDV FIR / North America



MET'MAP, your aeronautical weather chart ! - Copyright ORBIFLY December 2007 - Disclaimer

ORBIFLY MET'MAP TEAM :

Programming & Development : Alexandra Zaïnal
Concept & original design : Baudouin d'Aumeries
Assistance for programming : Marc-Olivier Méhu
Technical & hardware support : Manuel Goepfert

Contact : metmap@orbifly.com




SOURCES & CREDITS :

   NOAA       Earth
Advisory